Theta_e
313 314 314 314 315 315 316 316 317 317 320 335 341 340 341 340 339 338 338 338 338 336 335 334 333 332 332 333 333 332 331 330 326 317 314 312 310 310 311 312 312 313 313
309 311 313 314 314 313 313 313 314 315 316 317 318 328 340 340 340 339 338 336 334 334 336 335 334 333 332 332 333 332 331 329 324 316 307 305 307 308 309 311 311 311 311
309 310 313 315 315 315 314 314 313 313 314 314 314 316 316 328 335 337 338 337 336 333 330 332 334 334 332 331 332 332 331 326 322 319 313 307 308 305 307 307 309 310 310
310 312 313 315 316 316 316 316 316 315 314 314 313 312 313 314 316 327 335 335 335 335 334 333 331 332 334 333 331 331 331 328 321 316 315 315 313 306 306 305 306 308 309
310 312 314 316 317 316 316 316 315 315 315 314 314 314 312 312 312 314 317 320 330 334 334 334 333 332 332 332 333 332 329 328 324 318 315 311 312 308 304 305 304 304 307
311 312 316 316 316 315 315 314 314 314 314 314 313 313 313 314 313 313 313 315 316 326 331 331 331 333 331 331 332 332 332 329 326 321 318 314 312 311 305 307 304 305 305
310 311 312 313 314 314 313 313 313 313 312 313 313 314 314 314 315 314 315 316 316 317 322 329 330 330 329 329 328 328 329 330 327 323 318 316 313 313 311 307 304 304 302
309 312 311 312 312 312 312 312 311 310 310 311 311 312 312 313 314 315 315 316 317 319 321 322 325 327 328 327 329 327 326 327 328 325 319 316 314 314 314 311 308 304 300
312 311 310 310 311 311 310 309 309 308 308 308 309 310 311 312 314 316 316 316 317 317 318 319 321 324 325 325 325 325 323 324 325 325 323 319 317 316 313 311 309 309 310
311 309 308 309 309 307 307 307 307 306 305 306 307 308 310 312 314 314 313 312 313 313 314 314 315 317 319 320 322 324 324 324 324 323 321 319 317 315 311 309 307 307 308
310 307 306 307 306 306 305 305 304 303 303 304 305 306 308 310 310 311 311 311 310 310 311 312 312 312 313 315 316 318 319 318 318 318 317 316 314 312 309 308 306 303 304
309 307 306 305 304 304 303 302 301 301 301 301 303 304 306 307 307 308 307 308 308 308 308 309 310 310 310 310 312 312 312 312 313 313 313 313 312 309 306 303 300 299 301
308 306 304 303 302 302 301 301 300 300 300 300 301 302 302 303 302 303 303 303 303 303 303 304 304 305 306 307 307 307 307 307 306 304 303 303 301 300 300 299 298 298 298
308 305 302 301 301 300 299 299 299 298 299 299 300 299 300 299 300 300 300 300 300 301 301 300 301 301 301 301 300 300 300 300 299 299 299 298 297 296 296 295 295 296 295
306 305 301 298 298 298 297 297 297 297 298 298 298 298 298 297 297 298 298 298 298 297 297 297 298 297 297 295 296 296 295 295 295 294 294 293 294 294 294 293 293 293 293
306 303 300 298 297 297 296 296 296 296 296 296 296 296 296 295 295 295 295 295 295 295 295 295 294 294 294 293 294 295 294 294 293 292 292 292 293 292 292 292 291 291 291
304 301 298 297 297 296 296 295 295 295 295 295 295 294 294 294 294 293 294 293 293 293 294 293 293 293 293 292 292 293 292 292 290 290 290 291 290 290 290 290 290 290 290
302 299 297 296 295 295 295 294 294 294 294 294 294 293 293 292 293 293 292 292 292 292 291 291 291 292 292 291 291 291 291 291 290 290 289 289 288 288 288 287 286 286 286
299 297 296 295 295 294 295 294 293 293 293 292 292 292 292 292 292 291 290 290 289 289 289 289 289 290 289 289 288 288 288 287 286 285 285 285 285 286 286 285 285 286 286
298 296 295 295 294 294 294 294 293 293 292 291 291 291 291 291 291 290 289 288 289 288 287 286 287 287 287 287 287 285 285 285 285 284 283 285 285 286 286 286 285 285 285
297 296 295 295 295 294 294 293 293 292 292 292 292 292 292 291 290 289 290 289 287 287 288 288 288 287 287 288 287 285 284 284 284 283 283 284 285 285 285 285 284 284 284
298 297 296 296 295 295 294 293 293 293 293 293 293 293 293 292 291 289 287 287 286 286 286 286 285 285 285 285 286 285 285 284 283 284 283 283 284 283 283 283 282 282 282
299 298 297 296 296 296 295 294 293 293 293 293 293 292 291 291 289 288 287 286 286 285 285 284 283 282 282 283 284 284 285 284 284 284 284 283 283 282 280 280 281 281 279
300 299 298 297 296 296 296 295 294 293 293 292 290 287 287 286 286 286 286 286 285 284 284 283 283 282 282 283 283 283 283 283 282 282 282 281 282 280 280 279 279 279 279
301 300 299 298 297 297 296 296 295 293 292 289 287 287 287 286 285 285 285 284 284 284 283 283 282 282 282 282 283 283 283 283 283 283 281 279 279 279 279 279 279 280 280
301 300 300 299 298 298 297 296 295 293 292 288 287 287 286 285 286 285 285 284 283 283 282 282 281 281 282 283 283 283 283 283 283 282 279 278 278 278 279 279 279 279 280
Wind_Speed
2 12 12 11 8 4 1 2 3 2 4 20 26 28 28 29 26 25 30 29 23 27 31 34 34 34 33 34 34 33 34 31 29 20 19 19 22 25 27 26 27 27 26
5 7 11 11 10 7 4 4 6 8 8 8 6 9 21 28 33 30 31 29 29 30 28 33 38 37 38 35 35 36 33 33 30 16 5 2 10 26 29 29 29 31 29
6 4 10 12 9 8 7 7 7 10 13 13 13 13 9 11 14 22 27 28 28 27 29 32 33 37 38 39 39 38 37 29 33 33 14 2 6 3 19 37 33 33 33
7 6 10 10 8 6 4 4 6 7 7 9 11 13 15 15 16 15 22 26 27 27 25 25 27 35 37 43 40 37 40 36 30 31 38 25 6 4 3 12 32 32 34
8 7 8 8 9 5 3 4 5 6 8 7 8 10 12 15 16 16 15 16 23 26 24 24 26 25 31 36 38 38 32 41 29 30 29 33 20 11 3 4 5 27 34
7 7 9 9 8 5 4 5 5 7 8 8 7 8 10 12 13 15 16 18 16 16 26 28 29 28 22 25 29 30 32 35 40 35 33 26 14 19 6 3 4 7 17
7 6 6 7 6 5 5 5 7 7 8 8 9 9 11 11 10 10 10 11 11 12 12 13 20 23 23 22 24 28 29 32 35 38 38 38 33 25 24 12 3 4 11
7 7 8 8 6 6 7 7 8 8 10 9 9 9 10 11 10 10 10 8 8 7 6 6 4 7 14 18 22 19 23 27 30 34 34 34 34 38 33 23 15 2 4
8 8 9 9 7 8 9 10 9 10 10 10 10 10 10 10 9 6 6 8 9 9 11 10 7 5 10 12 14 15 17 22 25 29 31 33 35 35 33 31 26 20 7
8 7 8 9 11 11 10 11 10 10 10 9 10 11 11 9 5 7 10 10 10 10 10 10 10 9 7 8 9 10 13 16 17 21 22 26 27 24 25 25 25 23 18
7 7 8 11 11 9 9 11 11 10 10 10 11 11 10 10 9 8 9 9 9 9 7 8 8 9 8 9 9 9 9 12 11 11 13 17 17 18 19 19 20 22 22
7 6 8 11 10 10 9 9 10 11 11 10 9 10 8 8 8 7 7 6 5 7 8 6 6 8 8 7 7 8 9 9 10 10 9 12 13 15 14 14 12 14 17
7 6 7 9 9 9 7 6 8 9 9 7 7 9 10 9 9 7 5 5 5 7 8 9 10 9 7 6 6 6 6 7 7 6 5 4 5 8 7 10 10 12 13
7 5 6 8 9 8 6 5 4 6 7 7 8 10 10 10 9 7 8 8 8 9 9 10 11 10 10 8 5 5 4 4 3 3 3 3 3 4 5 6 8 8 7
6 6 6 6 8 6 5 4 2 4 5 5 7 8 7 6 7 9 8 8 8 9 9 11 12 12 11 11 8 7 8 9 9 8 7 8 6 5 2 2 4 4 5
7 6 6 8 6 5 3 2 4 5 5 6 7 5 6 7 7 7 8 10 11 13 15 16 15 17 16 13 11 9 11 11 11 11 11 11 11 10 7 5 2 1 2
7 7 6 8 6 5 3 3 4 5 7 7 8 7 6 7 9 11 12 13 12 13 16 17 18 18 16 14 14 12 14 14 12 11 9 9 8 7 8 7 5 4 2
8 7 10 11 8 6 5 5 5 5 6 7 7 6 6 8 10 12 12 13 13 14 16 17 17 18 15 13 12 12 12 11 10 8 7 7 6 5 5 6 6 3 2
9 12 16 14 11 8 7 8 7 8 8 7 8 8 9 10 12 13 13 13 14 15 15 14 13 15 14 12 13 12 11 10 10 10 9 8 7 6 4 4 4 3 4
17 18 18 16 13 10 9 10 7 8 9 9 12 12 11 13 14 13 12 13 13 14 13 14 15 14 13 11 8 8 8 7 6 6 5 5 6 5 5 5 5 3 1
18 20 18 15 14 13 13 11 9 9 10 13 14 13 13 13 13 12 11 12 14 12 11 10 9 9 8 10 9 7 6 5 4 4 4 3 5 5 4 5 6 5 7
17 18 18 14 14 13 14 13 12 11 11 12 13 11 11 10 11 10 10 9 7 7 7 5 5 3 4 6 5 6 6 6 4 3 5 6 5 6 6 7 7 6 7
16 19 18 16 15 14 15 16 14 14 13 13 13 11 10 8 6 5 5 5 4 4 3 1 1 2 2 3 3 5 5 5 4 3 6 4 6 7 8 6 6 6 6
16 20 19 17 17 19 16 15 17 16 15 13 11 10 9 9 7 6 6 6 5 4 3 1 0 2 2 2 5 6 6 7 8 8 10 8 8 7 7 8 7 7 6
18 21 20 19 20 22 21 19 19 19 17 15 13 12 10 10 9 6 5 4 2 1 2 1 0 2 2 4 5 7 8 8 9 9 11 9 7 6 8 8 7 7 7
20 21 20 20 22 24 23 22 22 22 20 18 16 14 13 11 9 8 6 3 2 1 1 1 2 3 4 5 6 7 7 8 8 10 10 9 8 9 9 10 10 10 9
Wind_Direction
337 106 109 103 119 117 184 330 310 298 207 225 226 225 226 232 246 242 240 236 237 234 240 236 236 234 238 239 231 228 233 233 230 218 229 235 231 232 233 231 226 226 225
74 93 95 83 77 65 24 303 287 277 270 269 262 236 236 241 245 254 252 251 256 249 241 240 238 236 236 236 236 231 229 232 217 200 155 250 251 237 232 230 228 227 226
145 126 100 91 75 47 22 359 330 298 284 285 279 273 278 259 254 253 259 262 262 263 262 251 246 240 241 238 238 237 229 221 214 211 190 146 226 218 230 231 229 228 224
130 131 119 100 103 74 23 356 351 352 340 326 310 294 284 285 279 275 266 268 267 266 263 263 259 253 248 242 239 240 237 220 212 210 216 223 178 193 283 232 230 229 230
141 130 112 98 116 98 54 4 348 347 354 336 328 323 308 292 289 283 288 288 279 267 266 263 260 260 254 255 249 241 238 231 224 213 221 225 224 221 164 243 241 229 231
139 139 122 109 118 102 55 22 20 16 5 359 1 4 351 334 315 300 296 292 301 296 268 266 265 259 261 260 260 261 250 241 234 228 226 224 217 233 215 242 245 231 228
160 134 121 101 81 66 53 37 24 22 20 17 3 351 347 341 334 332 338 336 321 324 336 282 272 268 265 264 268 264 261 251 240 233 232 229 232 232 227 221 196 227 223
161 146 133 112 91 72 58 49 40 42 28 13 2 353 353 350 339 331 329 337 340 1 351 315 312 279 278 279 269 271 281 273 259 245 236 236 236 235 239 236 219 240 238
153 140 122 114 94 81 60 48 46 35 22 9 353 349 346 350 350 350 338 329 325 318 323 330 337 308 269 265 267 275 281 283 276 266 247 239 244 246 244 242 236 231 242
136 129 120 110 102 87 68 54 46 42 29 10 4 1 3 4 19 360 348 332 323 316 317 322 329 320 314 301 285 275 274 283 277 267 258 242 243 246 241 238 242 232 234
141 138 129 116 111 88 64 52 46 39 25 15 17 23 30 59 62 31 27 26 20 3 358 351 356 6 357 333 317 305 292 288 285 276 255 240 243 244 242 243 240 250 238
145 139 135 126 104 88 74 57 41 29 16 10 18 31 30 42 43 29 20 27 27 12 22 20 31 21 16 357 331 313 312 303 293 270 253 243 242 237 241 246 239 239 228
131 117 111 120 113 104 93 47 12 11 7 13 21 39 40 39 38 26 16 27 24 36 39 40 47 50 45 19 5 333 338 332 327 332 326 296 273 265 249 252 243 233 225
146 136 107 114 108 99 79 50 359 5 18 40 53 55 48 47 46 46 51 53 44 48 53 57 54 51 46 43 40 34 39 63 58 50 31 349 302 291 269 234 226 212 199
143 144 126 119 112 93 71 49 35 14 24 50 49 44 39 45 48 48 52 59 70 70 71 71 71 65 58 52 55 70 76 72 71 71 78 63 45 42 68 207 215 199 172
147 126 123 122 116 112 107 104 63 55 47 49 49 48 49 55 60 67 66 72 77 83 82 75 74 69 61 60 61 66 80 86 93 95 88 93 97 87 74 88 113 155 146
145 140 137 134 140 133 112 77 82 91 84 84 74 65 73 86 81 81 84 85 87 91 90 88 81 72 69 69 72 82 92 96 90 85 85 87 85 90 105 98 101 83 35
142 144 145 132 134 133 123 118 108 122 108 89 86 82 84 88 93 95 99 104 105 97 92 88 88 86 75 74 74 79 85 88 84 77 65 51 44 47 53 41 36 32 300
143 149 150 140 144 136 127 112 109 113 120 112 102 97 102 107 113 114 115 115 107 96 92 90 88 83 75 69 68 66 71 76 76 68 51 41 41 31 10 351 341 308 334
143 141 144 144 140 137 133 116 125 120 109 116 110 110 127 128 125 127 119 110 101 98 97 88 84 81 78 62 57 58 64 69 66 56 55 44 27 13 7 335 337 357 290
145 150 149 151 149 153 138 132 129 133 137 121 119 131 136 134 129 122 108 102 101 95 91 89 89 77 67 66 62 56 55 55 54 42 22 14 356 351 342 326 317 306 308
150 156 151 155 160 159 149 148 159 154 146 137 140 139 137 132 127 117 116 116 108 101 98 103 97 73 57 51 50 42 43 27 20 9 346 322 317 320 319 312 310 302 296
163 168 162 163 173 177 173 166 173 165 163 161 157 156 155 156 149 145 142 148 151 137 131 138 40 10 20 41 39 25 15 11 343 346 333 306 310 313 319 330 313 302 307
176 177 174 174 180 190 190 185 178 185 185 181 181 176 172 162 157 164 173 172 171 169 165 160 336 322 334 9 340 333 331 327 324 321 325 314 305 309 320 323 323 330 324
188 187 186 188 191 193 197 193 189 192 195 191 186 182 180 185 177 175 189 188 167 203 191 163 327 327 296 327 330 329 329 332 331 318 329 334 331 339 331 331 327 326 328
192 192 195 194 200 198 200 200 196 194 200 194 193 191 191 195 194 183 157 159 132 105 64 24 357 316 298 303 320 320 312 314 319 309 322 327 334 333 328 325 324 323 321